BOX173A EGNX-EDDP

Flight info

Callsign BOX173A
Flight time N/A
Altitude 35000
Route SAPCO UY53 DTY P166 BANTO P155 SIVDA P137 REDFA DCT TACHA DCT BATEL DCT LEGDA DCT DIBDO Z20 KENIG T959 KOJEC KOJEC1V
Aircraft B77L/H-SDE1E2E3FGHIJ2J3J4J5M1RWXYZ/LB1D1

Departure

Time N/A
Airport East Midlands Airport (EGNX)

Arrival

Time 2026-05-04 21:15
Airport Leipzig/Halle Airport (EDDP)
Time Latitude Longitude Altitude Speed Heading
2026-05-04 20:21 52.31084 4.05905 35018 ft 495 kts 86°
2026-05-04 20:21 52.32134 4.22617 35008 ft 494 kts 86°
2026-05-04 20:22 52.32822 4.33788 35009 ft 494 kts 86°
2026-05-04 20:22 52.33487 4.44745 35003 ft 493 kts 86°
2026-05-04 20:23 52.34154 4.55910 34992 ft 493 kts 86°
2026-05-04 20:23 52.34806 4.66994 34993 ft 493 kts 86°
2026-05-04 20:24 52.35451 4.78158 34992 ft 493 kts 86°
2026-05-04 20:24 52.36086 4.89328 34993 ft 493 kts 87°
2026-05-04 20:25 52.36712 5.00508 34985 ft 493 kts 87°
2026-05-04 20:25 52.37322 5.11614 34993 ft 494 kts 87°
2026-05-04 20:26 52.37927 5.22823 34992 ft 495 kts 88°
2026-05-04 20:26 52.38522 5.34047 34998 ft 495 kts 88°
2026-05-04 20:27 52.39094 5.45019 34992 ft 496 kts 88°
2026-05-04 20:27 52.39669 5.56268 35004 ft 496 kts 88°
2026-05-04 20:28 52.40235 5.67555 34998 ft 498 kts 88°
2026-05-04 20:28 52.40791 5.78856 34976 ft 499 kts 88°
2026-05-04 20:29 52.41335 5.90127 34983 ft 500 kts 88°
2026-05-04 20:29 52.41872 6.01487 34976 ft 500 kts 89°
2026-05-04 20:30 52.42399 6.12855 34983 ft 500 kts 89°
2026-05-04 20:30 52.42914 6.24225 34978 ft 500 kts 89°
2026-05-04 20:31 52.43418 6.35586 34978 ft 500 kts 89°
2026-05-04 20:31 52.43908 6.46865 34977 ft 499 kts 89°
2026-05-04 20:32 52.44390 6.58223 34974 ft 499 kts 89°
2026-05-04 20:32 52.44861 6.69578 34979 ft 500 kts 90°
2026-05-04 20:33 52.45318 6.80880 34974 ft 500 kts 90°
2026-05-04 20:33 52.45769 6.92274 34974 ft 501 kts 90°
2026-05-04 20:34 52.46209 7.03677 34969 ft 502 kts 90°
2026-05-04 20:34 52.46638 7.15111 34983 ft 503 kts 90°
2026-05-04 20:35 52.47058 7.26573 34984 ft 504 kts 90°
2026-05-04 20:35 52.47465 7.37995 34985 ft 506 kts 90°
2026-05-04 20:36 52.47865 7.49512 34961 ft 506 kts 90°
2026-05-04 20:36 52.48254 7.61057 34969 ft 507 kts 90°
2026-05-04 20:37 52.48633 7.72614 34977 ft 508 kts 90°
2026-05-04 20:37 52.48998 7.84114 34973 ft 509 kts 91°
2026-05-04 20:38 52.49355 7.95711 34974 ft 509 kts 91°
2026-05-04 20:38 52.49700 8.07310 34974 ft 509 kts 90°
2026-05-04 20:39 52.50035 8.18932 34976 ft 510 kts 91°
2026-05-04 20:39 52.50356 8.30494 34975 ft 511 kts 91°
2026-05-04 20:40 52.50669 8.42136 34970 ft 511 kts 91°
2026-05-04 20:40 52.50970 8.53790 34951 ft 511 kts 91°
2026-05-04 20:41 52.51260 8.65452 34975 ft 512 kts 91°
2026-05-04 20:41 52.51539 8.77132 34973 ft 512 kts 91°
2026-05-04 20:42 52.51805 8.88742 34969 ft 513 kts 91°
2026-05-04 20:42 52.52062 9.00459 34954 ft 513 kts 91°
2026-05-04 20:43 52.52307 9.12173 34967 ft 513 kts 91°
2026-05-04 20:43 52.52541 9.23889 34967 ft 514 kts 91°
2026-05-04 20:44 52.52761 9.35534 34969 ft 514 kts 91°
2026-05-04 20:44 52.52972 9.47272 34965 ft 514 kts 91°
2026-05-04 20:45 52.53171 9.59000 34997 ft 514 kts 91°
2026-05-04 20:45 52.53359 9.70727 34994 ft 514 kts 91°
2026-05-04 20:46 52.53534 9.82375 34990 ft 513 kts 91°
2026-05-04 20:46 52.53698 9.94093 34995 ft 513 kts 92°
2026-05-04 20:47 52.53850 10.05805 34978 ft 513 kts 91°
2026-05-04 20:47 52.53991 10.17522 34727 ft 516 kts 92°
2026-05-04 20:48 52.54057 10.23419 34220 ft 516 kts 92°
2026-05-04 20:48 52.54121 10.29208 33680 ft 512 kts 92°
2026-05-04 20:48 52.54182 10.35027 33130 ft 507 kts 92°
2026-05-04 20:48 52.54239 10.40787 32650 ft 502 kts 92°
2026-05-04 20:49 52.54293 10.46485 32140 ft 497 kts 92°
2026-05-04 20:49 52.54342 10.52136 31667 ft 493 kts 92°
2026-05-04 20:49 52.54389 10.57748 31161 ft 489 kts 91°
2026-05-04 20:49 52.54433 10.63308 30686 ft 485 kts 91°
2026-05-04 20:50 52.54473 10.68751 30221 ft 481 kts 91°
2026-05-04 20:50 52.54511 10.74230 29692 ft 478 kts 91°
2026-05-04 20:50 52.54547 10.79670 29157 ft 474 kts 91°
2026-05-04 20:50 52.54580 10.85054 28675 ft 469 kts 91°
2026-05-04 20:51 52.54611 10.90385 28196 ft 464 kts 92°
2026-05-04 20:51 52.54639 10.95668 27710 ft 460 kts 92°
2026-05-04 20:51 52.54664 11.00900 27237 ft 456 kts 92°
2026-05-04 20:51 52.54469 11.06030 26738 ft 446 kts 104°
2026-05-04 20:52 52.53558 11.10746 26342 ft 434 kts 118°
2026-05-04 20:52 52.52087 11.15001 25866 ft 424 kts 131°
2026-05-04 20:52 52.50193 11.18600 25414 ft 413 kts 137°
2026-05-04 20:52 52.48253 11.22060 24984 ft 411 kts 137°
2026-05-04 20:53 52.46341 11.25531 24534 ft 409 kts 136°
2026-05-04 20:53 52.44453 11.29006 24103 ft 407 kts 136°
2026-05-04 20:53 52.42583 11.32466 23665 ft 405 kts 135°
2026-05-04 20:53 52.40722 11.35909 23170 ft 403 kts 135°
2026-05-04 20:54 52.38779 11.39023 22682 ft 392 kts 147°
2026-05-04 20:54 52.36469 11.41239 22278 ft 381 kts 160°
2026-05-04 20:54 52.33990 11.42588 21819 ft 370 kts 172°
2026-05-04 20:54 52.31481 11.43326 21421 ft 365 kts 173°
2026-05-04 20:55 52.28990 11.44038 20996 ft 362 kts 173°
2026-05-04 20:55 52.27006 11.44611 20669 ft 360 kts 174°
2026-05-04 20:55 52.25545 11.45036 20426 ft 358 kts 173°
2026-05-04 20:55 52.23103 11.45753 20018 ft 355 kts 173°
2026-05-04 20:56 52.20709 11.46462 19623 ft 353 kts 173°
2026-05-04 20:56 52.18304 11.47178 19215 ft 350 kts 173°
2026-05-04 20:56 52.15912 11.47892 18813 ft 348 kts 172°
2026-05-04 20:56 52.13539 11.48603 18412 ft 346 kts 172°
2026-05-04 20:57 52.11181 11.49308 17976 ft 344 kts 172°
2026-05-04 20:57 52.08837 11.50010 17548 ft 341 kts 172°
2026-05-04 20:57 52.06518 11.50704 17125 ft 337 kts 172°
2026-05-04 20:57 52.04221 11.51390 16723 ft 334 kts 172°
2026-05-04 20:58 52.01978 11.52059 16336 ft 331 kts 172°
2026-05-04 20:58 51.99726 11.52731 15944 ft 327 kts 172°
2026-05-04 20:58 51.97497 11.53394 15564 ft 324 kts 172°
2026-05-04 20:58 51.95289 11.54051 15181 ft 321 kts 172°
2026-05-04 20:59 51.93097 11.54703 14813 ft 320 kts 172°
2026-05-04 20:59 51.90904 11.55353 14435 ft 322 kts 171°
2026-05-04 20:59 51.88677 11.56012 14067 ft 329 kts 171°
2026-05-04 20:59 51.86411 11.56649 13655 ft 329 kts 175°
2026-05-04 21:00 51.84162 11.56352 13206 ft 325 kts 198°
2026-05-04 21:00 51.82163 11.54831 12798 ft 322 kts 215°
2026-05-04 21:00 51.80439 11.52549 12419 ft 319 kts 221°
2026-05-04 21:00 51.78788 11.50172 12009 ft 317 kts 221°
2026-05-04 21:01 51.77144 11.47791 11550 ft 318 kts 221°
2026-05-04 21:01 51.75497 11.45422 11150 ft 317 kts 221°
2026-05-04 21:01 51.73853 11.43076 10750 ft 315 kts 221°
2026-05-04 21:01 51.72224 11.40765 10513 ft 307 kts 221°
2026-05-04 21:02 51.70647 11.38537 10358 ft 296 kts 221°
2026-05-04 21:02 51.69120 11.36389 10249 ft 286 kts 221°
2026-05-04 21:02 51.67668 11.34351 10148 ft 275 kts 221°
2026-05-04 21:02 51.66251 11.32362 10024 ft 265 kts 221°
2026-05-04 21:03 51.64867 11.30514 9858 ft 252 kts 212°
2026-05-04 21:03 51.63231 11.29644 9576 ft 248 kts 184°
2026-05-04 21:03 51.61524 11.30050 9344 ft 254 kts 163°
2026-05-04 21:03 51.59907 11.31350 9070 ft 268 kts 146°
2026-05-04 21:04 51.58618 11.33571 8759 ft 275 kts 130°
2026-05-04 21:04 51.57527 11.36100 8445 ft 274 kts 127°
2026-05-04 21:04 51.56474 11.38626 8124 ft 269 kts 128°
2026-05-04 21:04 51.55439 11.41056 7831 ft 265 kts 128°
2026-05-04 21:05 51.54391 11.43456 7528 ft 260 kts 129°
2026-05-04 21:05 51.53348 11.45806 7261 ft 259 kts 129°
2026-05-04 21:05 51.52287 11.48180 6989 ft 265 kts 129°
2026-05-04 21:05 51.51190 11.50584 6692 ft 266 kts 133°
2026-05-04 21:06 51.49879 11.52647 6383 ft 261 kts 143°
2026-05-04 21:06 51.48498 11.54485 6074 ft 256 kts 144°
2026-05-04 21:06 51.47138 11.56275 5776 ft 250 kts 143°
2026-05-04 21:06 51.45809 11.58053 5499 ft 248 kts 142°
2026-05-04 21:07 51.44497 11.59834 5245 ft 254 kts 141°
2026-05-04 21:07 51.43141 11.61692 4960 ft 258 kts 140°
2026-05-04 21:07 51.41776 11.63568 4644 ft 257 kts 140°
2026-05-04 21:07 51.40430 11.65422 4343 ft 253 kts 140°
2026-05-04 21:08 51.39240 11.67431 4077 ft 247 kts 118°
2026-05-04 21:08 51.38816 11.70067 4033 ft 251 kts 91°
2026-05-04 21:08 51.38916 11.72893 4004 ft 257 kts 86°
2026-05-04 21:08 51.39052 11.75756 4009 ft 258 kts 86°
2026-05-04 21:09 51.39187 11.78569 3996 ft 256 kts 86°
2026-05-04 21:09 51.39321 11.81376 3861 ft 249 kts 86°
2026-05-04 21:09 51.39443 11.83942 3723 ft 239 kts 86°
2026-05-04 21:09 51.39483 11.84791 3670 ft 235 kts 86°
2026-05-04 21:10 51.39601 11.87283 3541 ft 224 kts 86°
2026-05-04 21:10 51.39659 11.88510 3477 ft 217 kts 86°
2026-05-04 21:10 51.39768 11.90841 3397 ft 205 kts 86°
2026-05-04 21:10 51.39876 11.93131 3313 ft 208 kts 85°
2026-05-04 21:11 51.39983 11.95409 3192 ft 207 kts 85°
2026-05-04 21:11 51.40090 11.97679 3080 ft 201 kts 85°
2026-05-04 21:11 51.40194 11.99899 2962 ft 202 kts 85°
2026-05-04 21:11 51.40300 12.02157 2680 ft 202 kts 85°
2026-05-04 21:12 51.40403 12.04341 2401 ft 189 kts 84°
2026-05-04 21:12 51.40497 12.06343 2208 ft 172 kts 84°
2026-05-04 21:12 51.40584 12.08207 1948 ft 164 kts 84°
2026-05-04 21:12 51.40667 12.09967 1736 ft 153 kts 84°
2026-05-04 21:13 51.40746 12.11645 1563 ft 150 kts 84°
2026-05-04 21:13 51.40824 12.13301 1347 ft 151 kts 84°
2026-05-04 21:13 51.40903 12.14976 1141 ft 150 kts 84°
2026-05-04 21:13 51.40981 12.16638 946 ft 149 kts 84°
2026-05-04 21:14 51.41065 12.18284 755 ft 147 kts 85°
2026-05-04 21:14 51.41135 12.19906 535 ft 147 kts 85°
2026-05-04 21:14 51.41210 12.21499 459 ft 134 kts 85°
2026-05-04 21:14 51.41270 12.22765 470 ft 87 kts 85°
2026-05-04 21:15 51.41302 12.23492 475 ft 47 kts 86°
2026-05-04 21:15 51.41305 12.23872 477 ft 29 kts 96°
2026-05-04 21:15 51.41242 12.24171 472 ft 29 kts 114°
2026-05-04 21:15 51.41182 12.24363 469 ft 14 kts 124°
2026-05-04 21:16 51.41104 12.24446 469 ft 14 kts 114°
2026-05-04 21:16 51.41092 12.24602 471 ft 14 kts 110°
2026-05-04 21:16 51.41002 12.24657 469 ft 15 kts 173°
2026-05-04 21:16 51.40947 12.24589 467 ft 11 kts 260°
2026-05-04 21:17 51.40944 12.24517 470 ft 4 kts 266°
2026-05-04 21:17 51.40944 12.24512 468 ft 0 kts 266°